1500282000.76,7679,17.06,74484.0,13.85,-6.13,-12.71,0,*4C
1500282002.01,7680,17.06,74482.5,13.85,-6.23,-12.93,0,*45
1500282003.26,7681,17.06,74484.3,13.81,-6.81,-13.61,0,*44
1500282004.47,7682,17.06,74482.8,13.77,-6.59,-13.43,0,*4B
1500282005.67,7683,17.06,74482.3,13.79,-6.13,-12.97,0,*42
1500282006.89,7684,17.06,74482.5,13.77,-6.77,-13.73,0,*42
1500282008.16,7685,17.06,74480.3,13.77,-7.01,-14.05,0,*45
1500282009.38,7686,17.06,74480.5,13.77,-6.31,-13.15,0,*42
1500282010.6,7687,17.06,74482.5,13.75,-6.19,-13.15,0,*4B
1500282011.84,7688,17.06,74480.8,13.75,-5.73,-12.65,0,*4D
1500282013.03,7689,17.0,74478.8,13.75,-5.43,-12.47,0,*4F
1500282014.26,7690,17.06,74480.8,13.75,-5.55,-12.61,0,*44
1500282015.5,7691,17.06,74482.3,13.75,-6.23,-13.29,0,*4A
1500282016.74,7692,17.06,74480.0,13.75,-6.63,-13.79,0,*48
1500282017.98,7693,17.06,74482.0,13.73,-6.93,-14.11,0,*49
1500282019.2,7694,17.06,74482.3,13.73,-6.81,-13.93,0,*40
1500282020.42,7695,17.06,74480.0,13.73,-6.35,-13.47,0,*47
1500282021.65,7696,17.06,74482.5,13.73,-6.59,-13.65,0,*4E
1500282022.89,7697,17.06,74482.0,13.73,-6.77,-13.83,0,*4B
1500282024.12,7698,17.06,74482.8,13.73,-6.51,-13.69,0,*44
1500282025.39,7699,17.06,74480.5,13.73,-7.31,-14.51,0,*4E
1500282026.6,7700,17.06,74484.0,13.71,-6.93,-14.11,0,*40
1500282027.81,7701,17.06,74478.8,13.71,-6.73,-13.87,0,*47
1500282029.03,7702,17.06,74480.3,13.71,-7.05,-14.29,0,*47
1500282030.29,7703,17.06,74482.3,13.73,-7.11,-14.47,0,*49
1500282031.51,7704,17.06,74480.8,13.71,-8.11,-15.53,0,*47
1500282032.76,7705,17.0,74476.5,13.69,-8.55,-15.89,0,*48
1500282033.98,7706,17.06,74482.3,13.65,-7.87,-15.11,0,*46
1500282035.24,7707,17.06,74482.0,13.65,-8.07,-15.29,0,*4B
1500282036.49,7708,17.06,74478.3,13.67,-7.91,-15.01,0,*4C
1500282037.72,7709,17.06,74478.0,13.65,-8.21,-15.49,0,*47
1500282038.99,7710,17.06,74480.5,13.65,-8.07,-15.21,0,*45
1500282040.21,7711,17.06,74480.3,13.63,-7.99,-15.07,0,*4E
1500282041.44,7712,17.06,74482.3,13.63,-8.51,-15.49,0,*4C
1500282042.64,7713,17.06,74480.0,13.63,-9.05,-15.95,0,*4C
1500282043.85,7714,17.06,74480.8,13.63,-8.55,-15.53,0,*45
1500282045.09,7715,17.06,74484.3,13.59,-9.41,-16.31,0,*4E
1500282046.34,7716,17.06,74482.8,13.59,-9.41,-16.31,0,*4D
1500282047.53,7717,17.06,74480.5,13.59,-9.67,-16.45,0,*4B
1500282048.81,7718,17.06,74480.0,13.57,-9.37,-16.09,0,*47
1500282050.06,7719,17.06,74486.3,13.57,-10.79,-17.73,0,*78
1500282051.33,7720,17.06,74482.0,13.55,-11.51,-18.01,0,*71
1500282052.53,7721,17.06,74480.0,13.53,-10.27,-16.75,0,*7B
1500282053.75,7722,17.06,74482.3,13.53,-10.41,-16.97,0,*74
1500282054.98,7723,17.06,74480.8,13.53,-10.93,-17.45,0,*74
1500282056.23,7724,17.06,74482.0,13.51,-10.85,-17.07,0,*70
1500282057.45,7725,17.06,74480.8,13.51,-11.11,-17.35,0,*7C
1500282058.65,7726,17.06,74482.3,13.53,-12.03,-18.21,0,*77
1500282059.9,7727,17.06,74480.5,13.51,-11.97,-18.11,0,*79
1500282061.12,7728,17.06,74482.0,13.47,-12.21,-18.17,0,*79
1500282062.4,7729,17.06,74478.8,13.47,-11.33,-17.11,0,*71
1500282063.67,7730,17.06,74478.8,13.47,-11.73,-17.41,0,*78
1500282064.89,7731,17.06,74486.0,13.45,-12.03,-17.55,0,*7A
1500282066.1,7732,17.06,74482.5,13.45,-12.39,-17.79,0,*7E
1500282067.34,7733,17.06,74480.5,13.43,-13.07,-18.59,0,*78
1500282068.55,7734,17.06,74482.0,13.43,-13.07,-18.21,0,*70
1500282069.8,7735,17.06,74482.0,13.37,-12.35,-17.41,0,*7B
1500282071.0,7736,17.06,74480.8,13.41,-12.47,-17.49,0,*74
1500282072.19,7737,17.06,74482.5,13.41,-12.39,-17.31,0,*73
1500282073.44,7738,17.06,74480.3,13.37,-12.35,-17.21,0,*70
1500282074.67,7739,17.06,74480.5,13.41,-12.93,-17.59,0,*73
1500282075.9,7740,17.06,74482.3,13.37,-13.29,-17.87,0,*7F
1500282077.09,7741,17.06,74480.5,13.37,-13.47,-17.87,0,*76
1500282078.31,7742,17.06,74484.5,13.35,-13.15,-17.49,0,*72
1500282079.55,7743,17.06,74484.0,13.35,-13.19,-17.25,0,*75
1500282080.75,7744,17.06,74482.0,13.37,-13.47,-17.35,0,*7A
1500282081.97,7745,17.06,74482.0,13.35,-13.47,-17.35,0,*79
1500282083.17,7746,17.06,74478.5,13.33,-13.23,-16.97,0,*77
1500282084.39,7747,17.06,74482.8,13.33,-13.65,-17.17,0,*7D
1500282085.64,7748,17.06,74480.5,13.33,-14.79,-18.31,0,*73
1500282086.91,7749,17.06,74480.5,13.31,-15.81,-19.27,0,*70
1500282088.13,7750,17.06,74480.0,13.31,-15.53,-18.79,0,*7D
1500282089.36,7751,17.06,74482.0,13.29,-14.55,-17.49,0,*7E
1500282090.58,7752,17.06,74482.5,13.25,-14.33,-17.11,0,*7C
1500282091.84,7753,17.06,74478.5,13.25,-14.47,-17.17,0,*78
1500282093.06,7754,17.06,74478.8,13.27,-14.33,-16.93,0,*73
1500282094.3,7755,17.06,74480.5,13.27,-13.73,-16.31,0,*79
1500282095.57,7756,17.06,74482.3,13.27,-14.55,-17.03,0,*79
1500282096.84,7757,17.06,74480.8,13.27,-14.75,-17.11,0,*79
1500282098.09,7758,17.06,74480.3,13.27,-14.69,-17.07,0,*7C
1500282099.31,7759,17.0,74476.5,13.27,-13.55,-15.71,0,*76
1500282100.56,7760,17.06,74480.3,13.27,-12.43,-14.47,0,*7E
1500282101.78,7761,17.06,74482.0,13.29,-12.53,-14.37,0,*77
1500282103.04,7762,17.06,74480.0,13.31,-13.37,-15.11,0,*7B
1500282104.27,7763,17.06,74480.0,13.35,-13.69,-15.49,0,*78
1500282105.49,7764,17.06,74482.8,13.33,-12.93,-14.51,0,*75
1500282106.73,7765,17.06,74484.5,13.35,-11.19,-12.71,0,*77
1500282107.96,7766,17.06,74482.8,13.37,-11.33,-12.97,0,*76
1500282109.2,7767,17.06,74484.0,13.45,-9.61,-10.79,0,*4E
1500282110.39,7768,17.06,74486.5,13.53,-8.75,-10.09,0,*45
1500282111.64,7769,17.06,74482.3,13.57,-9.11,-10.23,0,*4B
1500282112.88,7770,17.06,74484.0,13.65,-9.19,-10.27,0,*4E
1500282114.07,7771,17.06,74480.8,13.71,-9.27,-10.45,0,*43
1500282115.27,7772,17.06,74480.3,13.75,-9.01,-10.09,0,*48
1500282116.49,7773,17.06,74480.5,13.85,-8.67,-9.75,0,*74
1500282117.71,7774,17.0,74476.8,13.89,-9.61,-10.49,0,*4F
1500282118.92,7775,17.0,74478.5,13.93,-7.99,-8.93,0,*72
1500282120.13,7776,17.06,74480.8,14.01,-7.35,-8.17,0,*77
1500282121.35,7777,17.06,74482.0,14.05,-7.05,-7.87,0,*77
1500282122.58,7778,17.06,74482.8,14.15,-7.11,-7.99,0,*73
1500282123.79,7779,17.06,74484.5,14.23,-7.35,-8.29,0,*75
1500282125.04,7780,17.06,74486.8,14.33,-6.97,-7.87,0,*70
1500282126.26,7781,17.06,74486.0,14.37,-6.35,-7.19,0,*7A
1500282127.49,7782,17.06,74482.3,14.45,-7.87,-8.81,0,*7A
1500282128.73,7783,17.0,74476.8,14.49,-8.07,-9.01,0,*79
1500282130.0,7784,17.06,74480.3,14.59,-7.57,-8.51,0,*71
1500282131.23,7785,17.06,74482.3,14.63,-7.39,-8.41,0,*70
1500282132.44,7786,17.06,74480.3,14.69,-7.99,-9.01,0,*76
1500282133.68,7787,17.06,74484.5,14.71,-8.11,-9.23,0,*71
1500282134.89,7788,17.06,74484.5,14.81,-8.81,-9.97,0,*77
1500282136.08,7789,17.06,74482.3,14.85,-7.83,-8.85,0,*7D
1500282137.3,7790,17.06,74480.8,14.89,-7.43,-8.45,0,*79
1500282138.51,7791,17.06,74482.0,14.95,-6.51,-7.49,0,*74
1500282139.78,7792,17.06,74482.0,15.03,-6.97,-8.03,0,*72
1500282141.0,7793,17.06,74480.5,15.07,-7.11,-8.17,0,*7D
1500282142.23,7794,17.06,74480.0,15.15,-6.55,-7.73,0,*75
1500282143.44,7795,17.06,74482.5,15.21,-7.49,-8.67,0,*75
1500282144.65,7796,17.06,74484.8,15.27,-8.21,-9.41,0,*74
1500282145.85,7797,17.06,74484.3,15.31,-7.19,-8.37,0,*76
1500282147.08,7798,17.06,74480.0,15.37,-6.73,-7.95,0,*75
1500282148.29,7799,17.06,74480.3,15.45,-6.35,-7.53,0,*79
1500282149.5,7800,17.06,74482.3,15.51,-5.97,-7.19,0,*76
1500282150.69,7801,17.06,74482.8,15.57,-6.31,-7.49,0,*7B
1500282151.91,7802,17.06,74482.5,15.63,-5.55,-6.89,0,*73
1500282153.18,7803,17.06,74482.8,15.67,-6.19,-7.57,0,*7F
1500282154.39,7804,17.06,74480.5,15.77,-5.81,-7.23,0,*78
1500282155.6,7805,17.06,74482.0,15.83,-5.85,-7.19,0,*7F
1500282156.81,7806,17.06,74482.3,15.85,-6.09,-7.53,0,*73
1500282158.04,7807,17.06,74482.3,15.95,-5.93,-7.39,0,*7F
1500282159.28,7808,17.06,74486.0,15.99,-5.81,-7.27,0,*70
1500282160.48,7809,17.06,74486.0,16.03,-6.39,-8.03,0,*78
1500282161.66,7810,17.06,74482.3,16.07,-6.43,-8.17,0,*7C
1500282162.88,7811,17.06,74482.3,16.15,-6.63,-8.37,0,*7E
1500282164.12,7812,17.06,74480.5,16.21,-6.39,-8.11,0,*71
1500282165.36,7813,17.06,74482.5,16.27,-5.69,-7.35,0,*79
1500282166.62,7814,17.06,74482.3,16.29,-6.31,-8.07,0,*70
1500282167.83,7815,17.06,74482.8,16.37,-6.59,-8.45,0,*76
1500282169.1,7816,17.06,74482.3,16.41,-5.65,-7.43,0,*71
1500282170.32,7817,17.06,74482.3,16.45,-5.73,-7.49,0,*79
1500282171.56,7818,17.06,74480.3,16.49,-5.81,-7.65,0,*79
1500282172.83,7819,17.06,74482.5,16.59,-5.27,-6.97,0,*79
1500282174.07,7820,17.06,74482.0,16.63,-6.19,-8.21,0,*77
1500282175.34,7821,17.06,74478.0,16.67,-5.85,-7.65,0,*7B
1500282176.59,7822,17.06,74480.3,16.71,-5.11,-7.05,0,*74
1500282177.83,7823,17.06,74480.3,16.77,-4.89,-6.89,0,*76
1500282179.04,7824,17.06,74482.3,16.85,-4.99,-7.11,0,*7D
1500282180.31,7825,17.06,74480.5,16.89,-5.07,-7.27,0,*73
1500282181.56,7826,17.06,74480.3,16.93,-5.61,-8.03,0,*72
1500282182.83,7827,17.06,74482.5,16.97,-5.61,-7.99,0,*7B
1500282184.09,7828,17.06,74480.0,17.01,-5.23,-7.73,0,*78
1500282185.3,7829,17.06,74476.5,17.07,-5.65,-8.37,0,*72
1500282186.52,7830,17.06,74480.3,17.11,-6.31,-9.01,0,*7B
1500282187.79,7831,17.06,74482.3,17.11,-5.31,-8.03,0,*7A
1500282189.04,7832,17.06,74476.8,17.19,-4.93,-7.95,0,*78
1500282190.25,7833,17.06,74482.3,17.19,-6.09,-9.27,0,*7F
1500282191.5,7834,17.06,74480.3,17.23,-8.07,-11.45,0,*4C
1500282192.76,7835,17.06,74482.0,17.23,-6.27,-9.53,0,*7F
1500282193.96,7836,17.06,74482.0,17.29,-5.55,-9.01,0,*77
1500282195.18,7837,17.06,74476.5,17.31,-6.09,-9.75,0,*76
1500282196.39,7838,17.06,74476.3,17.33,-5.55,-9.11,0,*73
1500282197.62,7839,17.06,74478.5,17.37,-5.27,-8.81,0,*7B
1500282198.87,7840,17.06,74480.0,17.37,-5.85,-9.83,0,*7E
1500282200.09,7841,17.06,74478.8,17.41,-5.51,-9.53,0,*7A
1500282201.31,7842,17.06,74476.0,17.45,-5.85,-10.05,0,*4F
1500282202.54,7843,17.06,74480.8,17.45,-5.85,-10.27,0,*4E
1500282203.75,7844,17.06,74482.8,17.49,-5.03,-9.31,0,*74
1500282204.98,7845,17.06,74478.3,17.53,-5.69,-10.31,0,*4A
1500282206.2,7846,17.06,74480.0,17.53,-5.19,-9.93,0,*7E
1500282207.41,7847,17.06,74478.5,17.59,-4.57,-9.27,0,*71
1500282208.6,7848,17.06,74478.0,17.61,-4.37,-9.23,0,*77
1500282209.81,7849,17.06,74484.0,17.63,-4.33,-9.23,0,*70
1500282211.05,7850,17.06,74482.3,17.67,-4.89,-10.01,0,*45
1500282212.3,7851,17.06,74482.3,17.73,-4.93,-10.27,0,*4E
1500282213.52,7852,17.06,74480.3,17.73,-3.95,-9.19,0,*79
1500282214.78,7853,17.06,74486.0,17.77,-3.55,-8.81,0,*70
1500282216.02,7854,17.06,74480.3,17.81,-3.63,-9.01,0,*72
1500282217.22,7855,17.06,74482.3,17.87,-4.45,-10.19,0,*47
1500282218.43,7856,17.06,74482.0,17.87,-4.69,-10.45,0,*43
1500282219.65,7857,17.06,74482.3,17.89,-4.25,-10.09,0,*4C
1500282220.84,7858,17.06,74480.5,17.95,-4.09,-9.93,0,*7B
1500282222.03,7859,17.06,74480.8,17.99,-3.79,-9.89,0,*7D
1500282223.3,7860,17.06,74482.5,18.01,-5.15,-11.33,0,*4D
1500282224.54,7861,17.06,74482.0,18.03,-5.77,-11.85,0,*47
1500282225.76,7862,17.06,74482.8,18.07,-3.79,-9.89,0,*7D
1500282226.98,7863,17.06,74480.0,18.09,-2.99,-9.15,0,*78
1500282228.21,7864,17.06,74484.5,18.17,-3.59,-10.01,0,*40
1500282229.45,7865,17.06,74486.8,18.19,-4.69,-11.11,0,*4B
1500282230.7,7866,17.06,74480.8,18.21,-5.15,-11.63,0,*4C
1500282231.89,7867,17.06,74480.3,18.25,-4.49,-10.85,0,*48
1500282233.13,7868,17.06,74482.0,18.27,-5.73,-12.47,0,*41
1500282234.4,7869,17.06,74476.5,18.27,-5.03,-11.51,0,*43
1500282235.62,7870,17.06,74482.0,18.29,-4.05,-10.67,0,*46
1500282236.85,7871,17.06,74482.8,18.33,-3.95,-10.41,0,*46
1500282238.07,7872,17.06,74480.5,18.35,-4.33,-10.85,0,*40
1500282239.3,7873,17.06,74482.3,18.37,-3.79,-10.15,0,*43
1500282240.52,7874,17.06,74482.0,18.43,-3.59,-10.09,0,*48
1500282241.71,7875,17.06,74482.0,18.47,-4.57,-10.97,0,*43
1500282242.9,7876,17.06,74482.8,18.47,-4.09,-10.57,0,*47
1500282244.15,7877,17.06,74484.8,18.53,-4.01,-10.57,0,*4B
1500282245.37,7878,17.06,74482.3,18.55,-4.25,-10.79,0,*48
1500282246.6,7879,17.06,74482.3,18.59,-4.25,-10.67,0,*4A
1500282247.82,7880,17.06,74480.0,18.59,-4.25,-10.67,0,*4C
1500282249.09,7881,17.06,74482.8,18.65,-5.15,-11.73,0,*44
1500282250.36,7882,17.06,74482.8,18.65,-4.73,-11.07,0,*45
1500282251.54,7883,17.06,74480.0,18.67,-4.45,-10.89,0,*44
1500282252.76,7884,17.06,74484.5,18.73,-3.35,-9.53,0,*79
1500282254.01,7885,17.06,74480.5,18.73,-3.47,-9.83,0,*70
1500282255.23,7886,17.06,74482.0,18.77,-4.17,-10.63,0,*43
1500282256.47,7887,17.06,74482.0,18.79,-3.75,-10.15,0,*4E
1500282257.67,7888,17.06,74482.3,18.85,-3.39,-9.75,0,*74
1500282258.89,7889,17.06,74482.0,18.87,-4.09,-10.57,0,*4B
1500282260.16,7890,17.06,74482.5,18.91,-4.89,-11.51,0,*4B
1500282261.4,7891,17.06,74480.0,18.91,-5.03,-11.41,0,*48
1500282262.6,7892,17.06,74482.8,18.93,-4.61,-11.01,0,*48
1500282263.8,7893,17.06,74480.8,18.95,-4.45,-10.85,0,*44
1500282265.02,7894,17.06,74482.0,18.99,-4.99,-11.41,0,*47
1500282266.26,7895,17.06,74482.3,18.99,-5.47,-12.07,0,*45
1500282267.51,7896,17.06,74480.8,19.01,-6.13,-12.79,0,*4D
1500282268.78,7897,17.06,74480.0,19.01,-5.11,-11.55,0,*40
1500282270.0,7898,17.06,74480.0,19.03,-4.53,-10.79,0,*45
1500282271.22,7899,17.06,74480.0,19.09,-4.21,-10.45,0,*44
1500282272.47,7900,17.06,74478.8,19.09,-4.05,-10.41,0,*47
1500282273.69,7901,17.06,74482.5,19.13,-4.17,-10.23,0,*4A
1500282274.91,7902,17.06,74482.8,19.13,-6.35,-12.93,0,*42
1500282276.16,7903,17.06,74482.8,19.13,-6.09,-12.61,0,*41
1500282277.43,7904,17.06,74482.0,19.17,-5.15,-11.55,0,*48
1500282278.7,7905,17.06,74482.3,19.17,-5.23,-11.59,0,*40
1500282279.91,7906,17.06,74480.3,19.19,-4.85,-11.23,0,*4D
1500282281.14,7907,17.06,74480.0,19.21,-4.77,-10.93,0,*40
1500282282.35,7908,17.06,74482.3,19.21,-4.41,-10.53,0,*46
1500282283.56,7909,17.06,74478.3,19.25,-4.45,-10.49,0,*4C
1500282284.77,7910,17.06,74484.0,19.31,-5.43,-11.67,0,*4B
1500282285.98,7911,17.06,74482.8,19.27,-5.35,-11.59,0,*41
1500282287.19,7912,17.06,74482.8,19.31,-4.89,-11.11,0,*4F
1500282288.43,7913,17.06,74482.3,19.35,-4.73,-10.93,0,*44
1500282289.69,7914,17.06,74484.0,19.35,-5.11,-11.33,0,*4D
1500282290.91,7915,17.06,74478.5,19.37,-5.19,-11.41,0,*43
1500282292.15,7916,17.06,74484.0,19.39,-4.85,-11.11,0,*4F
1500282293.42,7917,17.06,74480.3,19.39,-5.61,-11.93,0,*4F
1500282294.66,7918,17.13,74484.3,19.39,-7.05,-13.51,0,*4C
1500282295.93,7919,17.06,74480.0,19.39,-7.43,-13.83,0,*40
1500282297.12,7920,17.06,74482.3,19.37,-6.81,-13.15,0,*44
1500282298.35,7921,17.06,74482.3,19.37,-6.13,-12.53,0,*4D
1500282299.57,7922,17.06,74482.5,19.37,-5.19,-11.45,0,*43
1500282300.79,7923,17.06,74480.3,19.37,-4.73,-10.97,0,*41
1500282302.04,7924,17.06,74482.0,19.43,-5.39,-11.63,0,*40
1500282303.26,7925,17.06,74480.5,19.41,-4.17,-10.41,0,*4F
1500282304.49,7926,17.06,74480.3,19.43,-3.95,-10.09,0,*4F
1500282305.71,7927,17.06,74480.5,19.47,-4.57,-10.97,0,*44
1500282306.93,7928,17.06,74482.5,19.49,-3.63,-9.89,0,*72
1500282308.13,7929,17.06,74482.0,19.53,-3.83,-10.09,0,*46
1500282309.34,7930,17.06,74480.5,19.57,-3.79,-10.19,0,*4E
1500282310.61,7931,17.06,74484.0,19.59,-5.15,-11.67,0,*45
1500282311.82,7932,17.06,74478.8,19.61,-3.51,-9.75,0,*71
1500282313.06,7933,17.06,74480.5,19.63,-3.51,-9.79,0,*7E
1500282314.3,7934,17.06,74482.0,19.65,-3.47,-9.79,0,*78
1500282315.54,7935,17.06,74482.3,19.69,-3.27,-9.57,0,*7F
1500282316.73,7936,17.13,74484.0,19.75,-3.31,-9.75,0,*76
1500282317.98,7937,17.06,74480.8,19.77,-4.33,-11.07,0,*4C
1500282319.17,7938,17.06,74482.0,19.79,-5.35,-12.21,0,*4D
1500282320.4,7939,17.06,74482.8,19.79,-5.11,-11.81,0,*43
1500282321.62,7940,17.06,74480.5,19.81,-4.21,-10.85,0,*4D
1500282322.84,7941,17.06,74478.0,19.83,-4.37,-11.07,0,*42
1500282324.06,7942,17.06,74482.3,19.83,-3.71,-10.35,0,*44
1500282325.27,7943,17.06,74482.0,19.87,-3.07,-9.61,0,*79
1500282326.51,7944,17.06,74482.3,19.89,-2.99,-9.49,0,*7C
1500282327.72,7945,17.06,74482.8,19.93,-3.07,-9.67,0,*7C
1500282328.97,7946,17.06,74482.8,19.99,-2.75,-9.37,0,*74
1500282330.18,7947,17.06,74482.3,20.01,-3.23,-9.89,0,*79
1500282331.42,7948,17.06,74482.8,20.05,-3.43,-10.23,0,*4C
1500282332.64,7949,17.06,74484.3,20.05,-4.33,-11.19,0,*45
1500282333.86,7950,17.06,74486.0,20.07,-5.35,-12.53,0,*45
1500282335.09,7951,17.06,74482.8,20.07,-4.33,-11.29,0,*4D
1500282336.34,7952,17.06,74480.5,20.09,-3.79,-10.71,0,*45
1500282337.53,7953,17.06,74480.3,20.11,-3.23,-10.15,0,*40
1500282338.79,7954,17.06,74482.3,20.13,-2.59,-9.41,0,*70
1500282340.04,7955,17.06,74484.0,20.17,-3.43,-10.35,0,*44
1500282341.24,7956,17.06,74480.0,20.23,-3.39,-10.49,0,*46
1500282342.5,7957,17.06,74482.8,20.25,-2.63,-9.53,0,*7C
1500282343.71,7958,17.06,74486.0,20.27,-3.27,-10.19,0,*46
1500282344.94,7959,17.06,74482.0,20.31,-3.39,-10.49,0,*4A
1500282346.15,7960,17.06,74482.0,20.35,-2.91,-9.79,0,*7C
1500282347.39,7961,17.06,74482.0,20.37,-2.67,-9.45,0,*79
1500282348.61,7962,17.06,74486.0,20.39,-3.11,-10.01,0,*4C
1500282349.87,7963,17.06,74482.8,20.43,-4.01,-10.97,0,*49
1500282351.12,7964,17.06,74486.0,20.43,-3.75,-10.79,0,*4A
1500282352.34,7965,17.06,74486.5,20.45,-3.43,-10.49,0,*4B
1500282353.54,7966,17.06,74484.0,20.49,-3.15,-10.19,0,*42
1500282354.78,7967,17.06,74484.3,20.51,-4.61,-11.89,0,*46
1500282356.01,7968,17.06,74486.0,20.55,-6.19,-13.47,0,*40
1500282357.23,7969,17.06,74484.3,20.51,-6.31,-13.51,0,*48
1500282358.47,7970,17.06,74484.3,20.49,-7.77,-15.57,0,*4A
1500282359.73,7971,17.06,74482.8,20.47,-9.61,-17.11,0,*4C
1500282360.96,7972,17.06,74486.0,20.43,-10.97,-18.79,0,*7B
1500282362.2,7973,17.06,74482.8,20.33,-11.37,-19.23,0,*78
1500282363.42,7974,17.06,74482.0,20.25,-11.23,-19.03,0,*7F
1500282364.68,7975,17.13,74484.0,20.21,-11.81,-19.61,0,*76
1500282365.9,7976,17.06,74486.0,20.13,-11.15,-19.03,0,*7D
1500282367.11,7977,17.06,74482.3,20.07,-11.45,-19.47,0,*7C
1500282368.31,7978,17.06,74484.8,20.03,-10.23,-18.07,0,*73
1500282369.56,7979,17.06,74484.5,20.01,-9.05,-17.03,0,*47
1500282370.78,7980,17.06,74484.5,19.99,-7.35,-15.11,0,*46
1500282372.03,7981,17.06,74482.5,19.99,-7.61,-15.39,0,*4C
1500282373.25,7982,17.06,74484.8,19.95,-6.43,-13.97,0,*40
1500282374.44,7983,17.06,74484.3,19.95,-6.13,-13.73,0,*4E
1500282375.68,7984,17.06,74486.0,20.01,-4.05,-11.37,0,*49
1500282376.93,7985,17.06,74484.0,20.01,-5.07,-12.47,0,*4F
1500282378.16,7986,17.06,74486.0,20.03,-6.27,-13.79,0,*43
1500282379.42,7987,17.06,74484.3,20.05,-4.85,-11.89,0,*43
1500282380.67,7988,17.06,74482.5,20.05,-3.59,-10.89,0,*4B
1500282381.91,7989,17.13,74484.0,20.09,-3.55,-10.85,0,*46
1500282383.13,7990,17.06,74480.5,20.13,-3.07,-10.27,0,*4A
1500282384.36,7991,17.06,74482.0,20.15,-4.17,-11.55,0,*4F
1500282385.59,7992,17.06,74482.0,20.17,-4.73,-12.43,0,*48
1500282386.85,7993,17.06,74482.5,20.17,-4.69,-12.11,0,*45
1500282388.04,7994,17.06,74482.8,20.23,-4.99,-12.47,0,*49
1500282389.28,7995,17.06,74480.0,20.27,-5.65,-13.29,0,*47
1500282390.53,7996,17.06,74480.8,20.27,-3.67,-10.75,0,*4A
1500282391.72,7997,17.06,74480.3,20.27,-2.95,-10.09,0,*4C
1500282392.96,7998,17.06,74484.0,20.35,-2.27,-9.37,0,*7C
1500282394.23,7999,17.13,74480.8,20.39,-2.75,-9.83,0,*79
1500282395.45,8000,17.06,74478.5,20.39,-3.79,-11.11,0,*40
1500282396.7,8001,17.06,74480.8,20.43,-5.85,-13.43,0,*4C
1500282397.91,8002,17.13,74484.5,20.45,-6.73,-14.43,0,*44
1500282399.12,8003,17.06,74480.5,20.45,-6.19,-13.73,0,*4D
1500282400.33,8004,17.06,74482.3,20.45,-4.45,-11.59,0,*4B
1500282401.52,8005,17.13,74486.5,20.45,-3.11,-10.23,0,*40
1500282402.71,8006,17.06,74482.8,20.49,-3.39,-10.53,0,*42
1500282403.92,8007,17.06,74480.3,20.53,-2.71,-9.75,0,*79
1500282405.17,8008,17.06,74480.8,20.57,-3.51,-10.63,0,*4E
1500282406.4,8009,17.13,74484.0,20.57,-5.11,-12.53,0,*4C
1500282407.62,8010,17.06,74480.0,20.57,-4.57,-11.73,0,*46
1500282408.84,8011,17.06,74480.5,20.61,-6.35,-13.93,0,*48
1500282410.07,8012,17.13,74484.5,20.57,-7.05,-14.55,0,*41
1500282411.29,8013,17.06,74482.5,20.57,-5.97,-13.29,0,*45
1500282412.52,8014,17.06,74480.0,20.57,-4.73,-11.85,0,*4D
1500282413.75,8015,17.13,74484.8,20.57,-4.81,-11.81,0,*45
1500282414.99,8016,17.06,74482.3,20.59,-5.19,-12.25,0,*45
1500282416.25,8017,17.13,74486.3,20.59,-6.27,-13.61,0,*4B
1500282417.48,8018,17.13,74486.0,20.59,-7.83,-15.25,0,*4D
1500282418.74,8019,17.13,74486.3,20.59,-6.27,-13.37,0,*46
1500282419.97,8020,17.13,74486.3,20.59,-6.27,-13.47,0,*4B
1500282421.2,8021,17.13,74486.0,20.57,-4.73,-11.59,0,*4A
1500282422.44,8022,17.06,74480.3,20.59,-2.99,-9.61,0,*77
1500282423.68,8023,17.06,74482.3,20.61,-4.13,-11.07,0,*40
1500282424.88,8024,17.13,74486.5,20.63,-7.11,-14.29,0,*4D
1500282426.12,8025,17.13,74484.8,20.63,-7.01,-14.05,0,*43
1500282427.34,8026,17.06,74482.0,20.61,-8.45,-15.67,0,*48
1500282428.56,8027,17.13,74484.5,20.57,-8.55,-15.57,0,*4E
1500282429.77,8028,17.13,74484.8,20.55,-8.21,-15.15,0,*46
1500282431.03,8029,17.06,74480.3,20.55,-7.91,-14.75,0,*44
1500282432.26,8030,17.06,74482.8,20.51,-8.93,-15.95,0,*4A
1500282433.51,8031,17.06,74480.5,20.47,-8.85,-15.85,0,*4A
1500282434.75,8032,17.13,74484.8,20.47,-9.49,-16.45,0,*47
1500282436.0,8033,17.13,74484.5,20.43,-8.11,-14.89,0,*4C
1500282437.23,8034,17.06,74480.3,20.43,-7.31,-13.93,0,*4A
1500282438.46,8035,17.06,74480.3,20.43,-8.33,-15.01,0,*4B
1500282439.69,8036,17.13,74486.0,20.37,-8.25,-14.79,0,*42
1500282440.93,8037,17.06,74482.0,20.37,-7.57,-14.05,0,*42
1500282442.18,8038,17.06,74482.0,20.35,-6.59,-12.83,0,*48
1500282443.42,8039,17.13,74484.5,20.35,-7.39,-13.73,0,*40
1500282444.69,8040,17.13,74484.0,20.35,-7.35,-13.61,0,*41
1500282445.93,8041,17.13,74484.0,20.35,-6.73,-12.83,0,*4E
1500282447.12,8042,17.06,74484.0,20.37,-5.35,-11.11,0,*46
1500282448.37,8043,17.13,74484.8,20.39,-6.55,-12.53,0,*49
1500282449.61,8044,17.13,74484.0,20.39,-6.01,-11.81,0,*43
1500282450.85,8045,17.13,74486.0,20.43,-4.77,-10.35,0,*42
1500282452.05,8046,17.13,74484.8,20.45,-3.67,-8.67,0,*7F
1500282453.24,8047,17.13,74484.5,20.49,-3.31,-8.41,0,*75
1500282454.47,8048,17.06,74482.0,20.53,-2.75,-7.77,0,*7A
1500282455.71,8049,17.13,74486.8,20.59,-3.47,-8.45,0,*7F
1500282456.92,8050,17.13,74486.3,20.67,-4.45,-9.53,0,*79
1500282458.12,8051,17.13,74484.0,20.67,-5.47,-10.57,0,*47
1500282459.34,8052,17.13,74488.0,20.69,-5.35,-10.27,0,*48
1500282460.56,8053,17.13,74486.5,20.71,-5.15,-10.09,0,*4E
1500282461.81,8054,17.13,74482.8,20.71,-7.05,-12.11,0,*41
1500282463.02,8055,17.13,74484.3,20.69,-8.41,-13.69,0,*48
1500282464.24,8056,17.13,74484.5,20.69,-8.41,-13.43,0,*43
1500282465.51,8057,17.13,74484.8,20.69,-7.69,-12.71,0,*47
1500282466.73,8058,17.13,74484.8,20.69,-8.41,-13.43,0,*4D
1500282467.97,8059,17.13,74486.5,20.63,-8.07,-13.01,0,*42
1500282469.22,8060,17.06,74480.8,20.63,-7.01,-11.63,0,*47
1500282470.41,8061,17.06,74482.8,20.63,-6.85,-11.19,0,*46
1500282471.62,8062,17.06,74482.3,20.67,-6.63,-11.01,0,*40
1500282472.81,8063,17.13,74484.5,20.67,-6.39,-10.85,0,*43
1500282474.02,8064,17.13,74482.8,20.67,-5.35,-9.49,0,*73
1500282475.27,8065,17.13,74480.5,20.71,-4.01,-8.11,0,*7F
1500282476.46,8066,17.13,74482.3,20.75,-3.83,-7.83,0,*71
1500282477.67,8067,17.06,74482.3,20.79,-3.55,-7.53,0,*7A
1500282478.85,8068,17.13,74484.5,20.83,-2.87,-6.73,0,*7D
1500282480.09,8069,17.13,74488.3,20.91,-3.55,-7.31,0,*76
1500282481.27,8070,17.06,74480.8,20.97,-2.95,-6.69,0,*79
1500282482.45,8071,17.13,74484.8,21.01,-3.11,-6.89,0,*75
1500282483.63,8072,17.13,74484.5,21.05,-2.95,-6.55,0,*7E
1500282484.87,8073,17.13,74484.5,21.07,-3.27,-6.93,0,*7F
1500282486.13,8074,17.13,74484.0,21.15,-3.47,-6.97,0,*79
1500282487.38,8075,17.13,74488.8,21.19,-3.51,-7.01,0,*7D
1500282488.59,8076,17.06,74482.3,21.23,-4.13,-7.53,0,*71
1500282489.79,8077,17.13,74484.3,21.23,-4.65,-8.17,0,*7E
1500282491.0,8078,17.13,74484.5,21.29,-4.81,-8.21,0,*74
1500282492.24,8079,17.13,74484.8,21.31,-4.65,-8.03,0,*76
1500282493.49,8080,17.13,74486.0,21.35,-4.17,-7.31,0,*7F
1500282494.67,8081,17.13,74486.8,21.41,-4.37,-7.53,0,*7B
1500282495.89,8082,17.13,74486.3,21.41,-5.19,-8.41,0,*79
1500282497.16,8083,17.13,74486.8,21.43,-5.93,-9.11,0,*7C
1500282498.38,8084,17.13,74486.3,21.43,-6.73,-9.71,0,*70
1500282499.6,8085,17.13,74484.3,21.45,-5.85,-8.71,0,*7C
1500282500.83,8086,17.13,74486.5,21.47,-5.55,-8.25,0,*71
1500282502.07,8087,17.13,74480.5,21.53,-5.03,-7.61,0,*79
1500282503.28,8088,17.13,74486.8,21.53,-4.93,-7.49,0,*74
1500282504.52,8089,17.13,74482.5,21.59,-5.11,-7.43,0,*7E
1500282505.76,8090,17.13,74486.8,21.61,-6.23,-8.71,0,*71
1500282506.98,8091,17.13,74482.3,21.63,-7.11,-9.61,0,*72
1500282508.2,8092,17.13,74482.5,21.63,-7.35,-9.67,0,*71
1500282509.39,8093,17.13,74486.0,21.63,-6.55,-8.67,0,*76
1500282510.59,8094,17.13,74484.5,21.67,-6.81,-8.89,0,*7C